Home   Weather   Ulaanbaatar   Past weeks

Flag for Mongolia Past Weather in Ulaanbaatar, Mongolia — Yesterday and Last 2 Weeks

Now
37 °F

Clear.


Feels Like: 35 °F
Forecast: 28 / 54 °F
Wind: 3 mph from Northwest

Location: Ulan-Bator

Current Time: Sep 27, 2016 at 11:48:29 AM

Latest Report: Sep 27, 2016 at 11:30 AM


Visibility: 5 mi

Pressure: 30.45 "Hg (25.93 "Hg at 1298m altitude)

Humidity: 65%

Dew Point: 27 °F

Location of UlaanbaatarLocation

Past Weather in Ulaanbaatar — Graph

°F

Ulaanbaatar Temperature Yesterday

Maximum temperature yesterday: 43 °F (at 3:00 PM)
Minimum temperature yesterday: 27 °F (at 11:30 PM)
Average temperature yesterday: 37 °F

High & Low Weather Summary for the Past Weeks

 TemperatureHumidityPressure
High72 °F (Sep 20, 5:30 PM)93% (Sep 13, 5:00 AM)30.45 "Hg (Sep 13, 5:00 AM)
Low21 °F (Sep 27, 6:00 AM)21% (Sep 13, 5:00 PM)29.68 "Hg (Sep 23, 5:00 PM)
Average50 °F64%30.11 "Hg
* Reported Sep 12 12:00 PM — Sep 27 11:00 AM, Ulaanbaatar, Weather by CustomWeather, © 2016

Note: Actual official high and low records may vary slightly from our data, if they occured in-between our weather recording intervals... More about our weather records

Advertising

Ulaanbaatar Weather History for the Previous 24 Hours

Scroll right to see more
 ConditionsComfort  
Time TempWeatherWind HumidityBarometerVisibility
11:00 AM
Tue, Sep 27
36 °FClear.3 mph65%30.45 "Hg4 mi
10:30 AM34 °FClear.1 mph65%30.45 "Hg4 mi
10:00 AM32 °FClear.No wind75%30.45 "Hg4 mi
9:30 AM30 °FClear.No wind80%30.45 "Hg4 mi
9:00 AM28 °FClear.No wind80%30.45 "Hg4 mi
8:30 AM27 °FClear.No wind86%30.45 "Hg4 mi
8:00 AM23 °FClear.No wind93%30.45 "Hg5 mi
7:30 AM21 °FClear.No wind86%30.45 "Hg5 mi
7:00 AM21 °FClear.1 mph86%30.42 "Hg5 mi
6:30 AM21 °FClear.1 mph93%30.42 "Hg10 mi
6:00 AM21 °FClear.No wind93%30.42 "Hg10 mi
5:30 AM23 °FClear.No wind86%30.42 "Hg10 mi
5:00 AM23 °FClear.No wind86%30.42 "Hg10 mi
4:30 AM25 °FClear.No wind86%30.42 "Hg10 mi
4:00 AM23 °FClear.1 mph93%30.42 "Hg10 mi
3:00 AM25 °FClear.No wind86%30.39 "Hg10 mi
2:00 AM27 °FClear.No wind86%30.39 "Hg10 mi
1:00 AM25 °FClear.3 mph86%30.39 "Hg10 mi
12:30 AM25 °FClear.3 mph93%30.39 "Hg10 mi
12:00 AM25 °FClear.3 mph93%30.39 "Hg10 mi
11:30 PM
Mon, Sep 26
27 °FClear.3 mph86%30.39 "Hg10 mi
11:00 PM28 °FClear.1 mph80%30.39 "Hg10 mi
10:30 PM28 °FClear.1 mph80%30.36 "Hg10 mi
10:00 PM28 °FClear.3 mph86%30.36 "Hg10 mi
9:30 PM34 °FClear.1 mph70%30.33 "Hg10 mi
9:00 PM32 °FClear.3 mph75%30.33 "Hg10 mi
8:30 PM34 °FClear.1 mph70%30.33 "Hg10 mi
8:00 PM34 °FClear.3 mph70%30.30 "Hg10 mi
7:30 PM36 °FSunny.6 mph60%30.30 "Hg10 mi
7:00 PM37 °FSunny.10 mph60%30.27 "Hg10 mi
6:30 PM39 °FSunny.15 mph52%30.27 "Hg10 mi
6:00 PM41 °FSunny.13 mph45%30.24 "Hg10 mi
5:30 PM41 °FSunny.15 mph42%30.24 "Hg10 mi
5:00 PM43 °FSunny.15 mph39%30.24 "Hg10 mi
4:30 PM43 °FPartly sunny.15 mph39%30.24 "HgN/A
4:00 PM43 °FPartly sunny.15 mph42%30.24 "HgN/A
3:30 PM43 °FPartly sunny.15 mph39%30.21 "HgN/A
3:00 PM43 °FPartly sunny.15 mph42%30.21 "HgN/A
2:30 PM41 °FPartly sunny.15 mph45%30.21 "HgN/A
2:00 PM41 °FPartly sunny.15 mph42%30.21 "HgN/A
1:30 PM41 °FPartly sunny.13 mph45%30.21 "HgN/A
1:00 PM41 °FPassing clouds.10 mph53%30.24 "HgN/A
12:30 PM39 °FScattered clouds.15 mph56%30.24 "HgN/A
12:00 PM37 °FScattered clouds.13 mph60%30.24 "HgN/A
11:30 AM37 °FScattered clouds.13 mph60%30.21 "Hg5 mi
11:00 AM37 °FPartly sunny.15 mph65%30.21 "Hg5 mi
Weather by CustomWeather, © 2016

See weather overviewHow to use our weather pages